TimeCDT,TemperatureF,Dew PointF,Humidity,Sea Level PressureIn,VisibilityMPH,Wind Direction,Wind SpeedMPH,Gust SpeedMPH,PrecipitationIn,Events,Conditions,WindDirDegrees,DateUTC
12:53 AM,41.0,37.0,86,30.14,10.0,West,5.8,-,N/A,,Mostly Cloudy,280,2013-10-16 05:53:00
1:53 AM,39.9,37.0,89,30.14,10.0,West,5.8,-,N/A,,Clear,280,2013-10-16 06:53:00
2:53 AM,39.9,36.0,86,30.14,10.0,WNW,6.9,-,N/A,,Clear,290,2013-10-16 07:53:00
3:38 AM,41.0,37.0,86,30.11,10.0,WNW,5.8,-,N/A,,Overcast,300,2013-10-16 08:38:00
3:53 AM,39.9,37.0,89,30.12,10.0,WNW,3.5,-,N/A,,Overcast,300,2013-10-16 08:53:00
4:34 AM,39.9,36.0,86,30.10,10.0,NW,5.8,-,N/A,,Scattered Clouds,320,2013-10-16 09:34:00
4:53 AM,39.9,36.0,86,30.13,10.0,West,4.6,-,N/A,,Clear,280,2013-10-16 09:53:00
5:53 AM,37.0,35.1,93,30.13,10.0,NW,5.8,-,N/A,,Clear,320,2013-10-16 10:53:00
6:53 AM,39.9,36.0,86,30.13,10.0,NW,8.1,-,N/A,,Clear,320,2013-10-16 11:53:00
7:39 AM,39.0,36.0,89,30.13,10.0,West,5.8,-,N/A,,Mostly Cloudy,270,2013-10-16 12:39:00
7:53 AM,39.0,36.0,89,30.15,10.0,West,4.6,-,N/A,,Scattered Clouds,270,2013-10-16 12:53:00
8:53 AM,44.1,39.0,82,30.17,10.0,West,4.6,-,N/A,,Clear,280,2013-10-16 13:53:00
9:53 AM,46.9,37.9,71,30.16,10.0,NW,8.1,-,N/A,,Clear,320,2013-10-16 14:53:00
10:53 AM,50.0,37.0,61,30.15,10.0,NNW,12.7,-,N/A,,Partly Cloudy,330,2013-10-16 15:53:00
11:53 AM,52.0,37.0,57,30.14,10.0,NW,11.5,-,N/A,,Clear,310,2013-10-16 16:53:00
12:53 PM,53.1,37.0,55,30.13,10.0,West,5.8,-,N/A,,Scattered Clouds,270,2013-10-16 17:53:00
1:53 PM,55.0,37.0,51,30.08,10.0,NNW,10.4,-,N/A,,Clear,330,2013-10-16 18:53:00
2:53 PM,57.0,37.0,47,30.04,10.0,WNW,9.2,-,N/A,,Clear,300,2013-10-16 19:53:00
3:53 PM,55.9,36.0,47,30.04,10.0,NW,8.1,-,N/A,,Partly Cloudy,320,2013-10-16 20:53:00
4:53 PM,55.0,37.0,51,30.04,10.0,West,6.9,-,N/A,,Overcast,270,2013-10-16 21:53:00
5:53 PM,53.1,37.0,55,30.06,10.0,WSW,5.8,-,N/A,,Overcast,250,2013-10-16 22:53:00
6:53 PM,51.1,39.0,63,30.06,10.0,West,4.6,-,N/A,,Overcast,260,2013-10-16 23:53:00
7:53 PM,50.0,39.9,68,30.05,10.0,WSW,3.5,-,N/A,,Overcast,250,2013-10-17 00:53:00
8:53 PM,48.9,42.1,77,30.05,10.0,WSW,3.5,-,0.00,,Overcast,250,2013-10-17 01:53:00
9:53 PM,48.9,39.9,71,30.05,10.0,SW,5.8,-,N/A,,Overcast,220,2013-10-17 02:53:00
10:53 PM,46.9,39.9,77,30.05,10.0,SW,6.9,-,N/A,,Overcast,230,2013-10-17 03:53:00
11:53 PM,48.0,39.0,71,30.04,10.0,West,6.9,-,N/A,,Overcast,260,2013-10-17 04:53:00